Weather History for Artesia, NM

Change the Weather History Date:

Sunday, February 10, 2013

  Actual Average Record
Temperature  
Mean Temperature 46 °F -  
Max Temperature 59 °F 57 °F 85 °F (1957)
Min Temperature 33 °F 24 °F 5 °F (1973)
Degree Days  
Heating Degree Days 19    
Moisture  
Dew Point 6 °F    
Average Humidity 23    
Maximum Humidity 35    
Minimum Humidity 9    
Precipitation  
Precipitation 0.00 in - - ()
Sea Level Pressure  
Sea Level Pressure 29.90 in    
Wind  
Wind Speed 15 mph (West)    
Max Wind Speed 23 mph    
Max Gust Speed 33 mph    
Visibility 10 miles    
Events      
Averages and records for this station are not official NWS values.
T = Trace of Precipitation, MM = Missing Value Source: NWS Daily Summary

Daily Weather History Graph

Daily Weather History Graph

Search for Another Location

Airport:

Trip Planner

Search our weather history database for the weather conditions in past years. The results will help you decide how hot, cold, wet, or windy it might be!

Date:

Astronomy

Feb. 10, 2013 Rise Set
Actual Time 6:45 AM MST 5:39 PM MST
Civil Twilight 6:20 AM MST 6:04 PM MST
Nautical Twilight 5:50 AM MST 6:33 PM MST
Astronomical Twilight 5:22 AM MST 7:02 PM MST
Moon 6:41 AM MST (2/10) 6:26 PM MST (2/10)
Length of Visible Light 11h 44m
Length of Day
10h 53m
New Moon, 0% of the Moon is Illuminated
Feb 10
New Moon
Feb 17
First Quarter
Feb 25
Full
Mar 4
Last Quarter
Mar 11
New

Hourly Weather History & Observations

Time (MST) Temp. Windchill Dew Point Humidity Pressure Visibility Wind Dir Wind Speed Gust Speed Precip Events Conditions
12:15 AM 39.2 °F 29.0 °F 8.6 °F 28% 29.86 in 10.0 mi West 21.9 mph 27.6 mph N/A   Clear
12:35 AM 39.2 °F 29.8 °F 8.6 °F 28% 29.87 in 10.0 mi WNW 18.4 mph 25.3 mph N/A   Clear
12:55 AM 37.4 °F 27.5 °F 8.6 °F 30% 29.87 in 10.0 mi WNW 18.4 mph - N/A   Clear
1:15 AM 37.4 °F 27.8 °F 8.6 °F 30% 29.88 in 10.0 mi West 17.3 mph - N/A   Clear
1:35 AM 37.4 °F 27.5 °F 8.6 °F 30% 29.88 in 10.0 mi West 18.4 mph - N/A   Clear
1:55 AM 35.6 °F 25.9 °F 8.6 °F 33% 29.87 in 10.0 mi West 16.1 mph - N/A   Clear
2:15 AM 37.4 °F 27.5 °F 10.4 °F 33% 29.86 in 10.0 mi West 18.4 mph - N/A   Clear
2:35 AM 37.4 °F 27.5 °F 10.4 °F 33% 29.86 in 10.0 mi West 18.4 mph - N/A   Clear
2:55 AM 37.4 °F 26.9 °F 10.4 °F 33% 29.85 in 10.0 mi West 20.7 mph - N/A   Clear
3:15 AM 37.4 °F 26.9 °F 10.4 °F 33% 29.86 in 10.0 mi West 20.7 mph 26.5 mph N/A   Clear
3:35 AM 37.4 °F 26.9 °F 10.4 °F 33% 29.86 in 10.0 mi West 20.7 mph - N/A   Clear
3:55 AM 37.4 °F 27.5 °F 10.4 °F 33% 29.86 in 10.0 mi West 18.4 mph 24.2 mph N/A   Clear
4:15 AM 37.4 °F 26.9 °F 10.4 °F 33% 29.86 in 10.0 mi West 20.7 mph 27.6 mph N/A   Clear
4:35 AM 37.4 °F 26.4 °F 10.4 °F 33% 29.86 in 10.0 mi West 23.0 mph - N/A   Clear
4:55 AM 39.2 °F 29.0 °F 10.4 °F 31% 29.87 in 10.0 mi West 21.9 mph 27.6 mph N/A   Clear
5:15 AM 35.6 °F 25.9 °F 10.4 °F 35% 29.88 in 10.0 mi West 16.1 mph - N/A   Clear
5:35 AM 35.6 °F 25.5 °F 10.4 °F 35% 29.88 in 10.0 mi West 17.3 mph - N/A   Clear
6:15 AM 35.6 °F 24.2 °F 10.4 °F 35% 29.88 in 10.0 mi West 21.9 mph 26.5 mph N/A   Clear
6:35 AM 35.6 °F 24.5 °F 10.4 °F 35% 29.89 in 10.0 mi West 20.7 mph - N/A   Clear
6:55 AM 35.6 °F 25.2 °F 10.4 °F 35% 29.89 in 10.0 mi West 18.4 mph - N/A   Clear
7:15 AM 35.6 °F 25.2 °F 10.4 °F 35% 29.90 in 10.0 mi West 18.4 mph 21.9 mph N/A   Clear
7:35 AM 37.4 °F 27.5 °F 8.6 °F 30% 29.90 in 10.0 mi West 18.4 mph 24.2 mph N/A   Clear
7:55 AM 39.2 °F 31.2 °F 8.6 °F 28% 29.92 in 10.0 mi West 13.8 mph 23.0 mph N/A   Clear
8:15 AM 39.2 °F 33.6 °F 10.4 °F 31% 29.94 in 10.0 mi East 8.1 mph - N/A   Clear
8:35 AM 39.2 °F 35.0 °F 8.6 °F 28% 29.95 in 10.0 mi East 5.8 mph - N/A   Clear
8:55 AM 41.0 °F 38.0 °F 8.6 °F 26% 29.95 in 10.0 mi NW 4.6 mph - N/A   Clear
9:15 AM 42.8 °F 39.3 °F 10.4 °F 27% 29.96 in 10.0 mi NNW 5.8 mph - N/A   Clear
9:35 AM 42.8 °F 40.1 °F 8.6 °F 25% 29.96 in 10.0 mi NNE 4.6 mph - N/A   Clear
9:55 AM 42.8 °F - 8.6 °F 25% 29.95 in 10.0 mi Calm Calm - N/A   Clear
10:15 AM 46.4 °F 44.3 °F 8.6 °F 22% 29.95 in 10.0 mi NNE 4.6 mph - N/A   Clear
10:35 AM 46.4 °F 41.9 °F 8.6 °F 22% 29.94 in 10.0 mi North 9.2 mph - N/A   Clear
10:55 AM 48.2 °F - 8.6 °F 20% 29.94 in 10.0 mi North 8.1 mph - N/A   Clear
11:15 AM 50.0 °F - 8.6 °F 19% 29.93 in 10.0 mi North 6.9 mph - N/A   Clear
11:35 AM 50.0 °F - 8.6 °F 19% 29.92 in 10.0 mi ESE 11.5 mph - N/A   Clear
11:55 AM 50.0 °F - 8.6 °F 19% 29.92 in 10.0 mi ESE 6.9 mph - N/A   Clear
12:15 PM 50.0 °F - 8.6 °F 19% 29.91 in 10.0 mi ESE 6.9 mph - N/A   Clear
12:35 PM 51.8 °F - 8.6 °F 18% 29.89 in 10.0 mi ESE 8.1 mph - N/A   Clear
12:55 PM 53.6 °F - 8.6 °F 16% 29.88 in 10.0 mi SE 8.1 mph - N/A   Clear
1:15 PM 53.6 °F - 8.6 °F 16% 29.87 in 10.0 mi Calm Calm - N/A   Clear
1:35 PM 53.6 °F - 6.8 °F 15% 29.86 in 10.0 mi SSW 5.8 mph 17.3 mph N/A   Clear
1:55 PM 55.4 °F - 6.8 °F 14% 29.85 in 10.0 mi East 5.8 mph - N/A   Clear
2:15 PM 55.4 °F - 8.6 °F 15% 29.84 in 10.0 mi NE 16.1 mph 19.6 mph N/A   Clear
2:35 PM 57.2 °F - 6.8 °F 13% 29.84 in 10.0 mi NNE 8.1 mph - N/A   Clear
2:55 PM 59.0 °F - 5.0 °F 12% 29.85 in 10.0 mi West 15.0 mph 23.0 mph N/A   Clear
3:15 PM 59.0 °F - 1.4 °F 10% 29.83 in 10.0 mi SW 23.0 mph 29.9 mph N/A   Clear
3:35 PM 59.0 °F - -0.4 °F 9% 29.84 in 10.0 mi West 23.0 mph 28.8 mph N/A   Clear
3:55 PM 57.2 °F - -0.4 °F 10% 29.85 in 10.0 mi West 19.6 mph 29.9 mph N/A   Clear
4:15 PM 55.4 °F - -0.4 °F 10% 29.84 in 10.0 mi WSW 21.9 mph 33.4 mph N/A   Clear
4:35 PM 55.4 °F - -0.4 °F 10% 29.85 in 10.0 mi WSW 23.0 mph 29.9 mph N/A   Clear
4:55 PM 55.4 °F - -0.4 °F 10% 29.85 in 10.0 mi WSW 23.0 mph 28.8 mph N/A   Clear
5:15 PM 55.4 °F - -0.4 °F 10% 29.86 in 10.0 mi WSW 21.9 mph 28.8 mph N/A   Clear
5:35 PM 53.6 °F - -2.2 °F 10% 29.87 in 10.0 mi WSW 18.4 mph 23.0 mph N/A   Clear
5:55 PM 50.0 °F - -0.4 °F 13% 29.88 in 10.0 mi SW 11.5 mph - N/A   Clear
6:15 PM 50.0 °F - -0.4 °F 13% 29.89 in 10.0 mi WSW 13.8 mph - N/A   Clear
6:35 PM 48.2 °F - -0.4 °F 13% 29.90 in 10.0 mi WSW 15.0 mph - N/A   Clear
6:55 PM 48.2 °F - -0.4 °F 13% 29.91 in 10.0 mi WSW 13.8 mph - N/A   Clear
7:15 PM 44.6 °F 38.4 °F -0.4 °F 15% 29.91 in 10.0 mi WSW 12.7 mph - N/A   Clear
7:35 PM 44.6 °F 38.1 °F -0.4 °F 15% 29.92 in 10.0 mi WSW 13.8 mph - N/A   Clear
7:55 PM 46.4 °F 40.7 °F 1.4 °F 16% 29.93 in 10.0 mi West 12.7 mph - N/A   Clear
8:15 PM 44.6 °F 40.2 °F 1.4 °F 17% 29.94 in 10.0 mi WSW 8.1 mph - N/A   Clear
8:35 PM 44.6 °F 39.2 °F 3.2 °F 18% 29.95 in 10.0 mi West 10.4 mph - N/A   Clear
8:55 PM 44.6 °F 39.2 °F 5.0 °F 20% 29.95 in 10.0 mi WNW 10.4 mph - N/A   Clear
9:15 PM 42.8 °F 38.6 °F 5.0 °F 21% 29.95 in 10.0 mi NW 6.9 mph - N/A   Clear
9:35 PM 44.6 °F 43.1 °F 5.0 °F 20% 29.96 in 10.0 mi NW 3.5 mph - N/A   Clear
9:55 PM 41.0 °F - 5.0 °F 23% 29.97 in 10.0 mi Calm Calm - N/A   Clear
10:15 PM 39.2 °F 37.0 °F 5.0 °F 24% 29.97 in 10.0 mi ESE 3.5 mph - N/A   Clear
10:35 PM 35.6 °F 28.6 °F 3.2 °F 26% 29.98 in 10.0 mi South 9.2 mph - N/A   Clear
10:55 PM 35.6 °F 31.7 °F 3.2 °F 26% 29.98 in 10.0 mi South 4.6 mph - N/A   Clear
11:15 PM 35.6 °F 29.9 °F 1.4 °F 24% 29.99 in 10.0 mi SSW 6.9 mph - N/A   Clear
11:35 PM 33.8 °F 29.6 °F 1.4 °F 25% 29.99 in 10.0 mi SSW 4.6 mph - N/A   Clear
11:55 PM 35.6 °F 31.7 °F 3.2 °F 26% 29.99 in 10.0 mi SW 4.6 mph - N/A   Clear